Cloud_Cover
0 0 0 0 0 0 0 0 0 0 0 5 5 4 0 27 100 25 100 51 100 100 100 80 99 100 0 24 0 0 0 0 0 0 0 0 0 0 5 5 5 11 11 0
0 0 0 0 0 0 0 0 0 0 0 0 3 4 1 0 10 3 100 100 98 100 100 45 80 100 0 0 0 0 0 0 0 0 0 0 0 0 0 4 5 5 4 4
0 0 0 0 0 0 0 0 0 0 0 0 0 82 100 8 0 0 100 100 97 99 100 79 9 61 0 0 0 0 0 0 0 0 0 0 0 0 0 16 6 17 4 5
0 0 0 0 0 0 0 0 0 0 0 0 0 1 100 43 54 0 33 100 100 100 100 79 4 0 0 0 0 0 0 0 0 0 0 0 0 0 0 0 0 14 5 7
0 0 0 0 0 0 0 0 0 0 0 0 0 0 0 21 25 0 0 28 100 100 100 44 2 0 0 0 0 0 0 0 0 0 0 0 0 0 0 0 0 0 0 1
0 0 0 0 0 0 0 0 0 0 0 0 0 0 0 9 0 0 0 57 100 100 100 100 24 25 0 0 0 0 0 0 0 0 0 0 0 0 0 0 0 0 0 0
0 0 0 0 0 0 0 0 0 0 0 0 0 0 0 0 0 0 0 97 100 100 100 100 100 100 46 0 0 0 0 0 0 0 0 0 0 0 0 0 0 0 0 0
0 0 0 0 0 0 0 0 0 0 0 0 0 0 0 0 0 0 0 100 100 100 99 100 71 100 81 0 0 0 0 0 0 0 0 0 0 0 0 0 0 0 0 0
0 0 0 0 0 0 0 0 0 0 0 0 0 0 0 0 0 0 4 91 100 100 100 99 100 97 12 0 0 0 0 0 0 0 0 0 0 0 0 0 0 0 0 0
0 0 0 0 0 0 0 0 0 0 0 0 0 0 0 0 0 0 42 65 97 100 56 95 100 100 46 0 0 1 0 0 0 0 0 0 0 0 0 0 0 0 0 0
0 0 0 0 0 0 0 0 0 0 0 0 0 0 0 0 0 0 38 100 100 100 91 81 84 67 97 14 18 3 2 0 0 0 0 0 0 0 0 0 0 0 0 0
0 0 0 0 0 0 0 0 0 0 0 0 0 0 0 0 0 0 0 100 100 100 100 100 100 100 100 100 100 64 46 0 0 0 0 0 0 0 0 0 0 0 0 0
0 0 0 0 0 0 0 0 0 0 0 0 0 0 0 0 1 1 0 13 13 100 100 100 100 100 100 100 70 8 100 43 0 0 0 0 0 0 0 0 0 0 0 0
0 0 0 0 0 0 0 0 0 0 0 0 0 0 0 0 0 64 5 0 1 0 19 100 100 100 100 100 95 98 100 100 5 57 4 0 0 0 0 0 0 0 0 0
5 4 0 0 0 0 0 0 2 2 0 0 0 0 0 0 1 7 5 4 94 63 0 100 100 95 100 100 100 99 100 100 100 100 90 0 0 0 0 0 0 0 4 4
0 0 0 0 0 0 0 0 0 5 18 4 0 0 0 0 1 7 5 5 1 1 6 47 100 100 100 100 100 100 100 100 100 100 100 16 0 0 0 0 0 0 0 0
0 0 0 1 0 0 0 0 0 2 66 100 12 0 0 0 0 71 27 60 35 5 6 1 22 100 100 100 100 100 93 100 100 100 100 50 3 0 0 0 0 0 0 0
0 0 2 4 3 4 0 0 0 0 100 88 5 0 0 0 0 89 77 100 98 100 100 37 25 100 100 100 100 100 94 100 100 100 100 93 90 2 0 0 0 0 0 0
5 5 5 4 5 0 0 0 11 70 98 99 6 0 0 0 0 66 97 97 73 100 54 20 7 82 100 100 100 100 100 100 100 100 100 100 82 92 0 0 0 0 0 0
5 8 4 5 73 25 7 33 45 11 100 96 6 0 0 0 2 0 60 100 100 98 100 91 100 18 100 100 100 100 100 100 100 100 96 85 100 100 35 0 0 0 0 0
99 100 100 76 96 81 97 19 14 68 53 100 45 5 0 0 0 0 0 100 100 100 100 100 79 100 100 100 100 100 100 100 100 100 94 100 100 100 100 91 98 0 0 0
100 95 100 100 99 90 65 17 60 73 97 73 100 52 5 3 0 0 0 26 100 100 82 100 47 100 100 97 100 100 100 100 100 100 99 100 100 100 100 100 89 13 0 0
100 100 100 87 31 98 80 92 90 65 97 46 98 100 100 89 2 0 0 0 97 100 100 100 99 100 91 57 93 100 100 96 100 100 100 100 100 100 100 100 82 0 0 0
100 100 100 100 89 98 97 99 99 100 100 100 100 100 100 39 31 5 0 0 18 100 100 82 100 100 97 100 100 98 13 50 79 68 100 100 100 100 100 100 6 3 0 0
48 85 99 85 99 98 100 100 100 100 100 100 100 100 100 100 77 96 3 0 0 96 100 100 86 100 100 100 85 100 95 64 100 100 94 100 100 100 100 100 30 36 3 0
100 66 93 10 99 94 96 100 100 100 100 100 100 100 100 100 28 43 70 0 2 0 91 99 83 100 99 99 100 95 84 78 39 100 89 96 77 89 100 100 100 100 50 0